User: anonymous   Login
Location: Cazarilh
(42.9578°N, 0.5819°E)
Time: 00:28:07
(UTC+00:00)
Language:

STARLINK-1024 - Orbit

View from above orbital plane
View from above orbital plane
View from above satellite
View from above satellite

Ground track
Ground track

The orbit data is extracted from the following two-line orbital elements,

1 44729U 19074S   20047.91667824  .00107999  00000-0  73261-2 0  9999
2 44729  52.9988  60.1356 0001671  60.9341 194.2285 15.05541990 15150
Epoch (UTC): 16 February 2020 22:00:01
Eccentricity: 0.0001671
inclination: 52.9988°
perigee height: 548 km
apogee height: 551 km
right ascension of ascending node: 60.1356°
argument of perigee: 60.9341°
revolutions per day: 15.05541990
mean anomaly at epoch: 194.2285°
orbit number at epoch: 1515

The dashed part of the orbit path shows where the satellite is in the earth's shadow,  

DLR